Current weather by "City, St" or "zip code"  
 

Current Conditions: Cairns Army Air Field / Ozark, AL

Fair


64.0 F

Last Updated on Oct 29 2020, 7:56 pm CDT
Humidity: 49%
Wind Speed: NW 10.4 mph
Barometer 29.88 in
Dewpoint: 44.1 F
Visibility: 10.00 mi
Precip: --
Heat Index: NA
Wind Chill: NA
Current conditions at:

Cairns Army Air Field / Ozark, AL (KOZR)

Lat: 31.27672 Lon: 85.71099

Local Radar Image active severe weather and emergency alerts image image weather storm and storm spotter reports image weather observation monitoring service image
Local
Radar
Active
Alerts
Storm Reports Obs
Monitoring

Sign-up For Email & Text Message Weather Alert Notification Services



Advertise Here

Observation History for Cairns Army Air Field / Ozark, AL


Time Wind
(mph)
Vis
(mi)
Weather Precip (in) Temperature (F) Relative
Humidity
Wind
Chill
(F)
Heat
Index
(F)
Pressure
Air Dwpt altimeter
(in)
sea level
(mb)
Rmks
7:56 pm CDT NW 10.4 10.00 Fair -- 64.0 44.1 49% NA NA 29.88 1011.9
6:56 pm CDT W 11.5 10.00 Fair -- 67.0 45.5 46% NA NA 29.84 1010.5
5:56 pm CDT W 16.1 G 21.9 10.00 Fair -- 72.0 48.2 43% NA NA 29.79 1008.8
4:56 pm CDT W 16.1 10.00 Fair -- 78.0 50.7 39% NA NA 29.74 1007.0
3:56 pm CDT W 13.8 G 21.9 10.00 Fair -- 82.0 53.8 38% NA 81 29.71 1006.0
2:56 pm CDT SW 13.8 10.00 Fair -- 84.0 56.1 39% NA 83 29.71 1006.0
1:56 pm CDT SW 19.6 G 26.5 10.00 A Few Clouds -- 84.0 61.2 47% NA 84 29.72 1006.3
12:56 pm CDT SW 11.5 G 21.9 10.00 Partly Cloudy -- 83.0 69.1 64% NA 87 29.74 1007.0
11:56 am CDT SW 16.1 G 21.9 10.00 Mostly Cloudy -- 81.0 70.2 70% NA 85 29.77 1008.0
10:56 am CDT SW 12.7 G 18.4 10.00 Mostly Cloudy -- 81.0 70.7 72% NA 85 29.79 1008.7
9:56 am CDT SW 12.7 10.00 Mostly Cloudy -- 80.0 71.6 76% NA 84 29.79 1008.7
8:56 am CDT S 10.4 10.00 Mostly Cloudy -- 78.0 73.2 87% NA NA 29.80 1009.1
7:56 am CDT S 6.9 10.00 Overcast -- 75.0 73.6 96% NA NA 29.80 1009.1
6:56 am CDT S 6.9 10.00 Overcast -- 75.0 72.7 94% NA NA 29.78 1008.4
5:56 am CDT SW 8.1 10.00 Overcast -- 75.0 72.1 91% NA NA 29.77 1008.1
3:56 am CDT S 15.0 10.00 Partly Cloudy 00.01 76.0 73.6 92% NA NA 29.74 1007.0
2:56 am CDT S 25.3 G 35.7 6.00 Light Rain Fog/Mist and Breezy -- 76.0 74.8 95% NA NA 29.73 1006.7
12:56 am CDT S 26.5 G 36.8 10.00 Light Drizzle and Windy -- 78.0 73.9 89% NA NA 29.71 1006.0
11:56 pm CDT SE 23.0 G 32.2 10.00 Overcast and Breezy -- 80.0 72.1 78% NA 84 29.72 1006.3
10:56 pm CDT SE 18.4 G 26.5 10.00 Overcast -- 78.0 72.9 83% NA NA 29.76 1007.7
9:56 pm CDT SE 16.1 G 25.3 10.00 Overcast -- 78.0 72.3 83% NA NA 29.80 1009.1
8:56 pm CDT SE 13.8 G 23.0 10.00 Mostly Cloudy -- 78.0 72.3 83% NA NA 29.83 1010.1
7:56 pm CDT SE 9.2 10.00 Partly Cloudy -- 78.0 72.1 82% NA NA 29.85 1010.8

Regional Weather Observation


Cairns Army Air Field / Ozark, AL (KOZR)

Fair
64.0 F

Hanchey AHP / Ozark, AL (KHEY)

Fair
64.0 F

Troy, Troy Municipal Airport, AL (KTOI)

Fair
61.0 F

Dothan, Dothan Regional Airport, AL (KDHN)

Fair
66.0 F

Andalusia, Andalusia-Opp Municipal Airport, AL (K79J)

Fair
63.0 F

Florala, Florala Municipal Airport, AL (K0J4)

Fair
69.0 F